Location: Lombard
(41.8800°N, 88.0080°W)
Time: 21:52:16
(UTC-06:00)

A-11 Canister half - Visible Passes

Search period start: 07 February 2023 00:00
Search period end: 17 February 2023 00:00
Orbit: 1514 x 1686 km, 47.2° (Epoch: 07 February)

Date Brightness Start Highest point End Pass type
(mag) Time Alt. Az. Time Alt. Az. Time Alt. Az.
08 Feb 12.0 06:25:21 10° SE 06:27:35 11° ESE 06:29:49 10° ESE visible
14 Feb 10.9 06:04:55 10° S 06:13:24 32° SE 06:21:42 10° ENE visible
15 Feb 10.9 05:42:13 10° S 05:50:31 30° SE 05:58:38 10° ENE visible
16 Feb 10.9 05:19:34 10° S 05:27:38 28° SE 05:35:33 10° ENE visible
